This demonstration page uses our WeatherBlox Daily Observations layout. Learn more.

Left ArrowRight Arrow

39.51506, -84.39828

Hourly Observations for January 3, 2021

Temp ( °F °C ) Dew Point ( °F °C ) Humidity (%) Winds ( mph kmh ) Pressure ( in mb ) Visibility ( mi km ) Precip ( " mm )
12:15 am 00:15 Cloudy with Drizzle 37 2.8 37 2.5 98 98 N N/A 29.97 1015 10 16.0934 N/A
12:35 am 00:35 Cloudy 37 2.8 37 2.5 98 98 N N/A 29.98 1015 10 16.0934 N/A
12:55 am 00:55 Cloudy with Mist and Fog 37 2.7 37 2.6 99 99 N N/A 29.98 1015 7 11.26538 N/A
1:15 am 01:15 Cloudy with Mist and Fog 37 2.7 37 2.7 100 100 N N/A 29.98 1015 3.5 5.63269 N/A
1:35 am 01:35 Cloudy with Mist and Fog 37 3 37 3 100 100 N N/A 29.97 1015 3 4.82802 N/A
1:55 am 01:55 Cloudy with Mist and Fog 37 3 N/A N/A N N/A 29.97 1015 2.5 4.02335 N/A
2:15 am 02:15 Cloudy with Light Rain 37 3 N/A N/A N N/A 29.97 1015 2.5 4.02335 N/A
2:35 am 02:35 Mostly Cloudy with Drizzle 37 3 N/A N/A N N/A 29.97 1015 2 3.21868 N/A
2:55 am 02:55 Cloudy with Drizzle 37 3 N/A N/A N N/A 29.97 1015 3 4.82802 N/A
3:15 am 03:15 Cloudy with Mist and Fog 37 3 N/A N/A N N/A 29.96 1014 3 4.82802 N/A
3:35 am 03:35 Cloudy with Mist and Fog 36 2 N/A N/A N N/A 29.96 1015 3.5 5.63269 N/A
3:55 am 03:55 Cloudy with Mist and Fog 37 3 N/A N/A N N/A 29.97 1015 4 6.43736 N/A
4:15 am 04:15 Cloudy with Mist and Fog 36 2 N/A N/A N N/A 29.97 1015 3.5 5.63269 N/A
4:35 am 04:35 Cloudy with Mist and Fog 36 2 N/A N/A N N/A 29.97 1015 3.5 5.63269 N/A
4:55 am 04:55 Cloudy with Mist and Fog 36 2 N/A N/A N N/A 29.97 1015 3 4.82802 N/A
5:15 am 05:15 Cloudy with Mist and Fog 36 2 N/A N/A N N/A 29.96 1015 2.5 4.02335 N/A
5:35 am 05:35 Cloudy with Mist and Fog 36 2 N/A N/A SW 3 6 29.97 1015 3.5 5.63269 N/A
5:55 am 05:55 Cloudy with Mist and Fog 36 2 N/A N/A SW 6 9 29.97 1015 2.5 4.02335 N/A
6:15 am 06:15 Cloudy with Mist and Fog 37 3 N/A N/A SW 7 11 29.98 1015 2.5 4.02335 N/A
6:35 am 06:35 Cloudy with Mist and Fog 36 2 N/A N/A SW 7 11 29.98 1015 3.5 5.63269 N/A
6:55 am 06:55 Cloudy with Mist and Fog 37 3 N/A N/A SSW 6 9 29.98 1015 3.5 5.63269 N/A
7:15 am 07:15 Cloudy with Haze 37 3 N/A N/A SSW 7 11 29.98 1015 4 6.43736 N/A
7:35 am 07:35 Cloudy with Haze 37 3 N/A N/A SW 7 11 29.98 1015 5 8.0467 N/A
7:55 am 07:55 Cloudy with Haze 37 3 N/A N/A SW 7 11 29.99 1015 4 6.43736 N/A
8:15 am 08:15 Cloudy with Haze 37 3 N/A N/A SSW 6 9 30 1016 5 8.0467 N/A
8:35 am 08:35 Cloudy 37 2.9 37 2.9 100 100 SW 5 7 30 1016 7 11.26538 N/A
8:55 am 08:55 Cloudy 38 3.1 37 2.8 98 98 SW 6 9 30.01 1016 10 16.0934 N/A
9:15 am 09:15 Cloudy 38 3.3 37 2.9 97 97 SW 6 9 30.02 1016 10 16.0934 N/A
9:35 am 09:35 Cloudy 38 3.5 37 2.6 94 94 SW 7 11 30.02 1016 10 16.0934 N/A
9:55 am 09:55 Cloudy 38 3.4 35 1.9 90 90 WSW 9 15 30.03 1017 10 16.0934 N/A
10:15 am 10:15 Cloudy 38 3.3 34 1.1 86 86 WSW 10 17 30.03 1017 10 16.0934 N/A
10:35 am 10:35 Cloudy 38 3.2 34 1 86 86 WSW 14 22 30.04 1017 10 16.0934 N/A
10:55 am 10:55 Cloudy 38 3.3 34 1.1 86 86 W 12 19 30.04 1017 10 16.0934 N/A
11:15 am 11:15 Cloudy 38 3.4 34 1 84 84 W 14 22 30.03 1017 10 16.0934 N/A
11:35 am 11:35 Cloudy 38 3.4 33 0.7 83 83 WSW 10 17 30.03 1017 10 16.0934 N/A
11:55 am 11:55 Cloudy 38 3.4 33 0.3 80 80 WSW 10 17 30.03 1017 10 16.0934 N/A
12:15 pm 12:15 Cloudy 38 3.6 33 0.6 81 81 WSW 8 13 30.03 1017 10 16.0934 N/A
12:35 pm 12:35 Cloudy 39 3.7 31 -0.3 75 75 WSW 13 20 30.03 1017 10 16.0934 N/A
12:55 pm 12:55 Cloudy 38 3.5 31 -0.6 75 75 W 12 19 30.02 1016 10 16.0934 N/A
1:15 pm 13:15 Cloudy 38 3.5 31 -0.7 74 74 WSW 13 20 30.02 1016 10 16.0934 N/A
1:35 pm 13:35 Cloudy 38 3.5 31 -0.6 75 75 W 13 20 30.02 1016 10 16.0934 N/A
1:55 pm 13:55 Cloudy 38 3.3 31 -0.5 76 76 W 10 17 30.02 1016 10 16.0934 N/A
2:15 pm 14:15 Cloudy 38 3.3 31 -0.6 76 76 W 10 17 30.02 1016 10 16.0934 N/A
2:35 pm 14:35 Cloudy 38 3.1 31 -0.6 77 77 WSW 13 20 30.02 1016 10 16.0934 N/A
2:55 pm 14:55 Cloudy 37 3 31 -0.7 77 77 W 9 15 30.03 1017 10 16.0934 N/A
3:15 pm 15:15 Cloudy 37 2.9 31 -0.8 77 77 W 12 19 30.04 1017 10 16.0934 N/A
3:35 pm 15:35 Cloudy 37 2.8 31 -0.6 79 79 WSW 9 15 30.05 1018 10 16.0934 N/A
3:55 pm 15:55 Cloudy 37 2.8 31 -0.5 79 79 WSW 12 19 30.05 1018 10 16.0934 N/A
4:15 pm 16:15 Cloudy 37 2.6 31 -0.4 81 81 W 8 13 30.06 1018 10 16.0934 N/A
4:35 pm 16:35 Cloudy 37 2.6 31 -0.3 81 81 W 7 11 30.06 1018 10 16.0934 N/A
4:55 pm 16:55 Cloudy 37 2.5 31 -0.5 81 81 W 8 13 30.07 1018 10 16.0934 N/A
5:15 pm 17:15 Cloudy 36 2.3 31 -0.3 83 83 W 7 11 30.07 1018 10 16.0934 N/A
5:35 pm 17:35 Cloudy 36 2.2 31 -0.3 84 84 W 9 15 30.08 1019 10 16.0934 N/A
5:55 pm 17:55 Cloudy 36 2.2 31 -0.4 83 83 W 9 15 30.09 1019 10 16.0934 N/A
6:15 pm 18:15 Cloudy with Drizzle 35 1.9 32 undefined 87 87 W 7 11 30.09 1019 10 16.0934 N/A
6:35 pm 18:35 Cloudy 35 1.7 32 0.2 90 90 W 6 9 30.09 1019 10 16.0934 N/A
6:55 pm 18:55 Cloudy 35 1.8 32 undefined 88 88 W 5 7 30.09 1019 10 16.0934 N/A
7:15 pm 19:15 Cloudy 35 1.9 32 -0.1 87 87 W 3 6 30.1 1019 10 16.0934 N/A
7:35 pm 19:35 Cloudy 35 1.8 32 -0.2 87 87 WSW 5 7 30.1 1019 10 16.0934 N/A
7:55 pm 19:55 Cloudy 35 1.8 32 -0.2 87 87 WSW 3 6 30.1 1019 10 16.0934 N/A
8:15 pm 20:15 Cloudy 35 1.7 32 -0.1 88 88 WSW 5 7 30.11 1020 10 16.0934 N/A
8:35 pm 20:35 Cloudy 35 1.6 32 -0.1 89 89 WSW 3 6 30.11 1020 10 16.0934 N/A
8:55 pm 20:55 Cloudy 35 1.5 32 undefined 90 90 N N/A 30.11 1020 10 16.0934 N/A
9:15 pm 21:15 Cloudy 34 1.3 32 0.1 92 92 WSW 3 6 30.1 1019 10 16.0934 N/A
9:35 pm 21:35 Cloudy 35 1.4 32 0.2 92 92 N N/A 30.1 1019 10 16.0934 N/A
9:55 pm 21:55 Cloudy 35 1.5 31 -0.3 88 88 N N/A 30.11 1020 10 16.0934 N/A
10:15 pm 22:15 Cloudy 35 1.6 31 -0.5 86 86 WSW 3 6 30.11 1020 10 16.0934 N/A
10:35 pm 22:35 Cloudy 35 1.4 31 -0.3 89 89 WSW 6 9 30.1 1019 10 16.0934 N/A
10:55 pm 22:55 Cloudy with Light Rain 34 0.9 32 0.1 94 94 N N/A 30.1 1019 7 11.26538 N/A
11:15 pm 23:15 Cloudy 34 0.9 33 0.4 97 97 N N/A 30.1 1019 10 16.0934 N/A
11:35 pm 23:35 Cloudy 33 0.7 33 0.4 98 98 N N/A 30.1 1019 10 16.0934 N/A
11:55 pm 23:55 Cloudy 33 0.8 33 0.5 98 98 N N/A 30.09 1019 10 16.0934 N/A

Powered by AerisWeather